Regional Weather Roundup
Issued by NWS

Home | Current Version | Previous Version | Graphics & Text | Print | Product List | Glossary On
Versions: 1 2 3 4 5 6 7 8 9 10 11 12 13 14 15 16 17 18 19 20 21 22 23 24 25 26 27 28 29 30 31 32 33 34 35 36 37 38 39 40 41 42 43 44 45 46 47 48 49 50
000
ASUS43 KBIS 291202
RWRND

NORTH DAKOTA REGIONAL WEATHER ROUNDUP
NATIONAL WEATHER SERVICE BISMARCK ND
700 AM CDT WED JUL 29 2015

NOTE: "FAIR" INDICATES FEW OR NO CLOUDS BELOW 12,000 FEET WITH NO
SIGNIFICANT WEATHER AND/OR OBSTRUCTIONS TO VISIBILITY.


NDZ001>003-009>011-017-291300-
NORTHWEST NORTH DAKOTA

CITY           SKY/WX    TMP DP  RH WIND       PRES   REMARKS
WILLISTON      MOCLDY    59  48  67 W18       29.98R
6HR MIN TEMP:  58; 6HR MAX TEMP:  62;

MINOT          CLOUDY    61  51  70 W17       29.85R
MINOT AFB      PTCLDY    62  56  81 W14G22    29.84R
$$

NDZ018>021-031>035-040>046-291300-
SOUTHWEST NORTH DAKOTA

CITY           SKY/WX    TMP DP  RH WIND       PRES   REMARKS
BISMARCK       CLEAR     61  47  59 W21G29    29.97R
6HR MIN TEMP:  58; 6HR MAX TEMP:  63;

DICKINSON      PTCLDY    56  43  61 W14       30.05R
GARRISON         N/A     59  52  77 W13       29.92R
6HR MIN TEMP:  57; 6HR MAX TEMP:  61;

HETTINGER ARPT CLEAR     52  41  66 W10       30.12R
$$

NDZ004>008-012>016-024-026-027-054-291300-
NORTHEAST NORTH DAKOTA

CITY           SKY/WX    TMP DP  RH WIND       PRES   REMARKS
GRAND FORKS    CLOUDY    65  55  70 W22G37    29.65R
GRND FRKS AFB  CLOUDY    65  55  70 NW22G39   29.66R
DEVILS LAKE    MOCLDY    64  48  55 W25G37    29.72R
$$

NDZ022-023-025-028>030-036>039-047>053-291300-
SOUTHEAST NORTH DAKOTA

CITY           SKY/WX    TMP DP  RH WIND       PRES   REMARKS
FARGO          CLOUDY    65  51  60 W23G29    29.77R
6HR MIN TEMP:  64; 6HR MAX TEMP:  67;

JAMESTOWN      CLEAR     63  50  62 W22G32    29.86R
$$




USA.gov is the U.S. government's official web portal to all federal, state and local government web resources and services.